• In Belgien
  • Länderverzeichnis
  • Für 7 Tage
  • Wassertemperatur
  • Satellitenkarten
  • Wetterkarte
  • Widgets
  • user-avatar
    Anmelden

    Stündliche Wetter Ronse

    Heute, 22 August, Mittwoch

    Zeit Temperatur Niederschläge Wind Luftdruck Luftfeuchtigkeit
    00:00 +21°C° 0 mm 1 m/S 760 mmHg 84%
    01:00 +20°C° 0 mm 1 m/S 760 mmHg 86%
    02:00 +20°C° 0 mm 1 m/S 759 mmHg 87%
    03:00 +20°C° 0 mm 1 m/S 759 mmHg 88%
    04:00 +19°C° 0 mm 1 m/S 759 mmHg 88%
    05:00 +19°C° 0 mm 1 m/S 759 mmHg 88%
    06:00 +19°C° 0 mm 1 m/S 759 mmHg 89%
    07:00 +20°C° 0 mm 2 m/S 759 mmHg 82%
    08:00 +21°C° 0 mm 2 m/S 759 mmHg 75%
    09:00 +24°C° 0 mm 2 m/S 759 mmHg 69%
    10:00 +25°C° 0 mm 3 m/S 759 mmHg 65%
    11:00 +26°C° 0 mm 3 m/S 759 mmHg 61%
    12:00 +27°C° 0 mm 3 m/S 759 mmHg 57%
    13:00 +27°C° 0 mm 3 m/S 758 mmHg 56%
    14:00 +27°C° 0 mm 3 m/S 758 mmHg 55%
    15:00 +28°C° 0 mm 3 m/S 758 mmHg 54%
    16:00 +27°C° 0 mm 3 m/S 758 mmHg 59%
    17:00 +26°C° 0 mm 3 m/S 758 mmHg 64%
    18:00 +25°C° 0 mm 2 m/S 758 mmHg 69%
    19:00 +23°C° 0 mm 2 m/S 758 mmHg 75%
    20:00 +21°C° 0 mm 2 m/S 758 mmHg 81%
    21:00 +19°C° 0 mm 2 m/S 758 mmHg 87%
    22:00 +19°C° 0 mm 2 m/S 758 mmHg 88%
    23:00 +19°C° 0 mm 1 m/S 758 mmHg 90%

    Morgen, 23 August, Donnerstag

    Zeit Temperatur Niederschläge Wind Luftdruck Luftfeuchtigkeit
    00:00 +19°C° 0 mm 1 m/S 758 mmHg 91%
    01:00 +18°C° 0 mm 1 m/S 758 mmHg 92%
    02:00 +18°C° 0 mm 1 m/S 757 mmHg 92%
    03:00 +18°C° 0 mm 1 m/S 757 mmHg 93%
    04:00 +17°C° 0 mm 2 m/S 757 mmHg 92%
    05:00 +18°C° 0 mm 2 m/S 757 mmHg 91%
    06:00 +18°C° 0 mm 2 m/S 757 mmHg 90%
    07:00 +19°C° 0 mm 3 m/S 757 mmHg 83%
    08:00 +21°C° 0 mm 3 m/S 757 mmHg 76%
    09:00 +23°C° 0 mm 4 m/S 756 mmHg 70%
    10:00 +25°C° 0 mm 4 m/S 756 mmHg 66%
    11:00 +26°C° 0 mm 4 m/S 756 mmHg 63%
    12:00 +26°C° 0 mm 5 m/S 756 mmHg 60%
    13:00 +26°C° 0,1 mm 5 m/S 755 mmHg 61%
    14:00 +26°C° 0,1 mm 5 m/S 755 mmHg 61%
    15:00 +26°C° 0,1 mm 6 m/S 755 mmHg 62%
    16:00 +23°C° 0,2 mm 5 m/S 755 mmHg 69%
    17:00 +21°C° 0,2 mm 5 m/S 755 mmHg 76%
    18:00 +20°C° 0,2 mm 4 m/S 755 mmHg 83%
    19:00 +19°C° 0 mm 3 m/S 755 mmHg 86%
    20:00 +17°C° 0 mm 3 m/S 756 mmHg 88%
    21:00 +16°C° 0 mm 2 m/S 756 mmHg 91%
    22:00 +16°C° 0 mm 2 m/S 756 mmHg 91%
    23:00 +15°C° 0 mm 2 m/S 755 mmHg 91%

    übermorgen, 24 August, Freitag

    Zeit Temperatur Niederschläge Wind Luftdruck Luftfeuchtigkeit
    00:00 +14°C° 0 mm 3 m/S 755 mmHg 91%
    01:00 +14°C° 0 mm 3 m/S 755 mmHg 90%
    02:00 +14°C° 0 mm 3 m/S 755 mmHg 88%
    03:00 +14°C° 0 mm 3 m/S 755 mmHg 87%
    04:00 +14°C° 0,1 mm 3 m/S 755 mmHg 87%
    05:00 +14°C° 0,1 mm 4 m/S 755 mmHg 86%
    06:00 +14°C° 0,1 mm 4 m/S 755 mmHg 85%
    07:00 +15°C° 0,1 mm 4 m/S 755 mmHg 77%
    08:00 +15°C° 0,1 mm 5 m/S 756 mmHg 70%
    09:00 +16°C° 0,1 mm 6 m/S 756 mmHg 62%
    10:00 +16°C° 0 mm 6 m/S 756 mmHg 57%
    11:00 +17°C° 0 mm 6 m/S 756 mmHg 52%
    12:00 +19°C° 0 mm 6 m/S 756 mmHg 47%
    13:00 +17°C° 0 mm 6 m/S 756 mmHg 47%
    14:00 +17°C° 0 mm 6 m/S 756 mmHg 47%
    15:00 +17°C° 0 mm 5 m/S 756 mmHg 47%
    16:00 +17°C° 0 mm 5 m/S 756 mmHg 52%
    17:00 +16°C° 0 mm 5 m/S 756 mmHg 56%
    18:00 +15°C° 0 mm 4 m/S 756 mmHg 61%
    19:00 +14°C° 0 mm 4 m/S 756 mmHg 63%
    20:00 +13°C° 0 mm 4 m/S 756 mmHg 66%
    21:00 +13°C° 0 mm 4 m/S 756 mmHg 69%
    22:00 +13°C° 0 mm 4 m/S 756 mmHg 69%
    23:00 +12°C° 0 mm 4 m/S 756 mmHg 69%

    25 August, Samstag

    Zeit Temperatur Niederschläge Wind Luftdruck Luftfeuchtigkeit
    00:00 +12°C° 0 mm 3 m/S 756 mmHg 69%
    01:00 +12°C° 0,1 mm 3 m/S 756 mmHg 71%
    02:00 +12°C° 0,1 mm 3 m/S 755 mmHg 73%
    03:00 +11°C° 0,1 mm 3 m/S 755 mmHg 74%
    04:00 +11°C° 0,1 mm 3 m/S 755 mmHg 76%
    05:00 +11°C° 0,1 mm 3 m/S 755 mmHg 77%
    06:00 +11°C° 0,1 mm 3 m/S 756 mmHg 79%
    07:00 +12°C° 0,1 mm 4 m/S 756 mmHg 73%
    08:00 +14°C° 0,1 mm 4 m/S 756 mmHg 66%
    09:00 +15°C° 0,1 mm 5 m/S 756 mmHg 60%
    10:00 +16°C° 0,2 mm 5 m/S 756 mmHg 57%
    11:00 +17°C° 0,2 mm 5 m/S 756 mmHg 54%
    12:00 +19°C° 0,2 mm 5 m/S 756 mmHg 51%
    13:00 +19°C° 0,1 mm 5 m/S 756 mmHg 51%
    14:00 +19°C° 0,1 mm 5 m/S 756 mmHg 50%
    15:00 +19°C° 0,1 mm 5 m/S 756 mmHg 49%
    16:00 +18°C° 0 mm 4 m/S 756 mmHg 53%
    17:00 +17°C° 0 mm 3 m/S 756 mmHg 57%
    18:00 +16°C° 0 mm 3 m/S 757 mmHg 61%
    19:00 +15°C° 0 mm 2 m/S 757 mmHg 65%
    20:00 +14°C° 0 mm 2 m/S 757 mmHg 68%
    21:00 +12°C° 0 mm 1 m/S 758 mmHg 72%
    22:00 +12°C° 0 mm 1 m/S 758 mmHg 74%
    23:00 +12°C° 0 mm 2 m/S 758 mmHg 76%

    26 August, Sonntag

    Zeit Temperatur Niederschläge Wind Luftdruck Luftfeuchtigkeit
    00:00 +10°C° 0 mm 2 m/S 758 mmHg 79%
    01:00 +10°C° 0 mm 2 m/S 758 mmHg 81%
    02:00 +10°C° 0 mm 2 m/S 758 mmHg 83%
    03:00 +10°C° 0 mm 2 m/S 758 mmHg 85%
    04:00 +10°C° 0 mm 2 m/S 759 mmHg 84%
    05:00 +10°C° 0 mm 2 m/S 759 mmHg 83%
    06:00 +12°C° 0 mm 2 m/S 759 mmHg 83%
    07:00 +14°C° 0 mm 2 m/S 759 mmHg 74%
    08:00 +16°C° 0 mm 3 m/S 759 mmHg 66%
    09:00 +18°C° 0 mm 3 m/S 759 mmHg 58%
    10:00 +19°C° 0 mm 3 m/S 759 mmHg 52%
    11:00 +20°C° 0 mm 3 m/S 759 mmHg 45%
    12:00 +21°C° 0 mm 3 m/S 759 mmHg 39%
    13:00 +21°C° 0 mm 3 m/S 759 mmHg 38%
    14:00 +21°C° 0 mm 3 m/S 758 mmHg 36%
    15:00 +22°C° 0 mm 3 m/S 758 mmHg 34%
    16:00 +20°C° 0 mm 3 m/S 758 mmHg 39%
    17:00 +19°C° 0 mm 2 m/S 758 mmHg 45%
    18:00 +18°C° 0 mm 2 m/S 758 mmHg 50%
    19:00 +18°C° 0 mm 2 m/S 758 mmHg 51%
    20:00 +17°C° 0 mm 2 m/S 758 mmHg 52%
    21:00 +17°C° 0 mm 2 m/S 758 mmHg 53%
    22:00 +16°C° 0,3 mm 2 m/S 758 mmHg 58%
    23:00 +16°C° 0,3 mm 3 m/S 758 mmHg 62%

    27 August, Montag

    Zeit Temperatur Niederschläge Wind Luftdruck Luftfeuchtigkeit
    00:00 +16°C° 0,3 mm 3 m/S 758 mmHg 67%
    01:00 +14°C° 0,4 mm 3 m/S 758 mmHg 71%
    02:00 +14°C° 0,4 mm 4 m/S 757 mmHg 74%
    03:00 +14°C° 0,4 mm 4 m/S 757 mmHg 78%
    04:00 +14°C° 0,2 mm 4 m/S 757 mmHg 78%
    05:00 +14°C° 0,2 mm 4 m/S 757 mmHg 78%
    06:00 +14°C° 0,2 mm 4 m/S 757 mmHg 78%
    07:00 +14°C° 0 mm 4 m/S 758 mmHg 75%
    08:00 +15°C° 0 mm 4 m/S 758 mmHg 72%
    09:00 +17°C° 0 mm 4 m/S 758 mmHg 69%
    10:00 +17°C° 0,1 mm 4 m/S 758 mmHg 68%
    11:00 +18°C° 0,1 mm 4 m/S 758 mmHg 67%
    12:00 +18°C° 0,1 mm 4 m/S 758 mmHg 66%
    13:00 +19°C° 0,1 mm 4 m/S 758 mmHg 64%
    14:00 +20°C° 0,1 mm 4 m/S 757 mmHg 61%
    15:00 +22°C° 0,1 mm 5 m/S 757 mmHg 59%
    16:00 +21°C° 0 mm 4 m/S 757 mmHg 62%
    17:00 +20°C° 0 mm 3 m/S 757 mmHg 65%
    18:00 +19°C° 0 mm 3 m/S 757 mmHg 68%
    19:00 +19°C° 0 mm 3 m/S 757 mmHg 69%
    20:00 +18°C° 0 mm 2 m/S 758 mmHg 71%
    21:00 +18°C° 0 mm 2 m/S 758 mmHg 72%
    22:00 +18°C° 0,1 mm 2 m/S 758 mmHg 76%
    23:00 +18°C° 0,1 mm 2 m/S 758 mmHg 80%
    Mehr zeigen